Flag for U.S.A. Weather past 2 weeks in Boca Raton, Florida, U.S.A.

Now
56 °F

Clear.


Feels Like: 55 °F
Forecast: 55 / 72 °F
Wind: 6 mph from Southwest

Location: Pompano Beach - Pompano Beach Airpark

Current Time: Jan 26, 2015 at 3:49:17 AM

Latest Report: Jan 26, 2015 at 2:53 AM


Visibility: 10 mi

Pressure: 29.96 "Hg

Humidity: 77%

Dew point: 49 °F

Location of Boca RatonLocation

Historic Weather in Boca Raton — Graph

°F

Boca Raton temperature yesterday

Maximum temperature yesterday: 69 °F (at 3:53 PM)
Minimum temperature yesterday: 51 °F (at 6:53 AM)
Average temperature yesterday: 59 °F

Past Weeks' High & Low Weather Summary

 TemperatureHumidityPressure
High83 °F (Jan 13, 1:53 PM)96% (Jan 13, 5:53 AM)30.30 "Hg (Jan 13, 5:53 AM)
Low51 °F (Jan 25, 6:53 AM)28% (Jan 25, 2:53 PM)29.89 "Hg (Jan 24, 7:53 AM)
Average72 °F67%30.08 "Hg
* Reported Jan 11 2:53 AM — Jan 26 2:53 AM, Boca Raton, Weather by CustomWeather, © 2014

Note: Actual official high and low records may vary slightly from our data, if they occured in-between our weather recording intervals... More about our weather records

Advertising

Boca Raton weather history for previous 24 hours

 ConditionsComfort  
Time TempWeatherWind HumidityBarometerVisibility
2:53 AM
Jan 26
56 °FClear.6 mph77%29.96 "Hg10 mi
1:53 AM55 °FClear.6 mph74%29.97 "Hg10 mi
12:53 AM54 °FClear.No wind67%29.99 "Hg10 mi
11:53 PM
Jan 25
55 °FClear.No wind62%30.02 "Hg10 mi
10:53 PM54 °FClear.No wind62%30.03 "Hg10 mi
9:53 PM56 °FClear.3 mph58%30.03 "Hg10 mi
8:53 PM58 °FClear.No wind50%30.04 "Hg10 mi
7:53 PM62 °FClear.5 mph41%30.03 "Hg10 mi
6:53 PM63 °FClear.7 mph38%30.02 "Hg10 mi
5:53 PM65 °FSunny.3 mph39%29.99 "Hg10 mi
4:53 PM68 °FSunny.5 mph30%29.99 "Hg10 mi
3:53 PM69 °FSunny.5 mph29%30.00 "Hg10 mi
2:53 PM68 °FSunny.6 mph28%30.00 "Hg10 mi
1:53 PM67 °FSunny.3 mph30%30.02 "Hg10 mi
12:53 PM67 °FSunny.10 mph29%30.07 "Hg10 mi
11:53 AM64 °FSunny.12 mph32%30.09 "Hg10 mi
10:53 AM62 °FSunny.12 mph34%30.10 "Hg10 mi
9:53 AM59 °FSunny.14 mph41%30.10 "Hg10 mi
8:53 AM56 °FSunny.17 mph49%30.10 "Hg10 mi
7:53 AM52 °FSunny.9 mph64%30.10 "Hg10 mi
6:53 AM51 °FClear.8 mph71%30.07 "Hg10 mi
5:53 AM52 °FClear.8 mph80%30.05 "Hg10 mi
4:53 AM53 °FClear.9 mph80%30.03 "Hg10 mi
3:53 AM55 °FClear.12 mph77%30.02 "Hg10 mi
Weather by CustomWeather, © 2014

See weather overviewHow to use our weather pages